Home   Weather   32°52'N, 96°45'W   Past weeks
Flag for USA

Past Weather in 32°52'N, 96°45'W, USA — Yesterday and Last 2 Weeks

Now
62 °F

Mostly cloudy.


Feels Like: 62 °F
Forecast: 77 / 60 °F
Wind: 6 mph from Southeast

Location: Dallas Love Field

Current Time: Oct 14, 2019 at 5:35:00 am

Latest Report: Oct 14, 2019 at 4:53 am


Visibility: 10 mi

Pressure: 29.96 "Hg

Humidity: 73%

Dew Point: 53 °F

Location of 32°52'N, 96°45'WLocation

Past Weather in 32°52'N, 96°45'W — Graph

°F

32°52'N, 96°45'W Temperature Yesterday

Maximum temperature yesterday: 77 °F (at 3:53 pm)
Minimum temperature yesterday: 57 °F (at 12:53 am)
Average temperature yesterday: 66 °F

High & Low Weather Summary for the Past Weeks

 TemperatureHumidityPressure
High97 °F (Oct 6, 2:53 pm)90% (Oct 10, 9:53 pm)30.31 "Hg (Oct 10, 9:53 pm)
Low41 °F (Oct 12, 6:40 am)17% (Oct 12, 3:53 pm)29.70 "Hg (Oct 10, 6:53 pm)
Average76 °F56%30.00 "Hg
* Reported Sep 29 3:53 am — Oct 14 3:53 am, 32°52'N, 96°45'W. Weather by CustomWeather, © 2019

Note: Actual official high and low records may vary slightly from our data, if they occured in-between our weather recording intervals... More about our weather records

Advertising

32°52'N, 96°45'W Weather History for the Previous 24 Hours

Scroll right to see more
 ConditionsComfort  
Time TempWeatherWind HumidityBarometerVisibility
3:53 am
Mon, Oct 14
62 °FPassing clouds.7 mph73%29.97 "Hg10 mi
2:53 am62 °FPassing clouds.9 mph73%29.97 "Hg10 mi
1:53 am63 °FPassing clouds.9 mph68%29.96 "Hg10 mi
12:53 am65 °FPassing clouds.9 mph61%29.98 "Hg10 mi
11:53 pm
Sun, Oct 13
66 °FPassing clouds.8 mph54%29.98 "Hg10 mi
10:53 pm66 °FPassing clouds.7 mph56%29.98 "Hg10 mi
9:53 pm66 °FPassing clouds.6 mph54%29.97 "Hg10 mi
8:53 pm70 °FPassing clouds.5 mph44%29.97 "Hg10 mi
7:53 pm71 °FPassing clouds.12 mph42%29.95 "Hg10 mi
6:53 pm73 °FScattered clouds.8 mph38%29.93 "Hg10 mi
5:53 pm75 °FPassing clouds.12 mph32%29.93 "Hg10 mi
4:53 pm77 °FPassing clouds.10 mph29%29.92 "Hg10 mi
3:53 pm77 °FPassing clouds.12 mph30%29.93 "Hg10 mi
2:53 pm76 °FPassing clouds.5 mph29%29.94 "Hg10 mi
1:53 pm76 °FPassing clouds.5 mph27%29.97 "Hg10 mi
12:53 pm73 °FPassing clouds.8 mph29%30.00 "Hg10 mi
11:53 am70 °FPassing clouds.6 mph34%30.03 "Hg10 mi
10:53 am67 °FScattered clouds.6 mph41%30.04 "Hg10 mi
9:53 am62 °FPartly sunny.6 mph56%30.05 "Hg10 mi
8:53 am60 °FPartly sunny.6 mph53%30.05 "Hg10 mi
7:53 am60 °FOvercast.5 mph49%30.03 "Hg10 mi
6:53 am60 °FOvercast.5 mph46%30.03 "Hg10 mi
5:53 am60 °FOvercast.6 mph42%30.03 "Hg10 mi
Weather by CustomWeather, © 2019

See weather overview